Вернуться в каталог

STARLINK-1286

АктивенСвязьVLEO
NORAD 45417·PAYLOAD·🇺🇸 United States

Запущен Mar 18, 2020 с Cape Canaveral Space Force Station

Loading…

Ближайшие Пролёты (ближайшие 24 часа)

TLE

СвежийSource: CelesTrak SupGP

Эпоха: Sep 14, 2026, 20:00 UTC

1 45417C 20019BK  26257.83381944  .00090891  00000+0  52366-3 0  2573
2 45417  53.0371 284.6056 0003121   3.8698   7.1795 15.77945384    17

Отслеживайте STARLINK-1286 в реальном времени с AllMySat

Download on the App Store